Preview of NWS' New Version of Forecast
This preview is not operational and should not be used for support decisions.

Regional Weather Roundup (RWR)

Issued by National Weather Service (NWS)

                            
000
ASUS42 KTBW 250617
RWRFL 
FLORIDA REGIONAL WEATHER ROUNDUP
NATIONAL WEATHER SERVICE TAMPA BAY RUSKIN FL
200 AM EDT MON MAR 25 2019

NOTE: "FAIR" INDICATES FEW OR NO CLOUDS BELOW 12,000 FEET WITH NO
SIGNIFICANT WEATHER AND/OR OBSTRUCTIONS TO VISIBILITY.

FLZ001>010-012>015-112-114-115-250700-
PANHANDLE FLORIDA
  
CITY           SKY/WX    TMP DP  RH WIND       PRES   REMARKS
PENSACOLA      FAIR      60  57  89 S3        30.12F                  
PENSACOLA NAS  FAIR      59  57  93 SW6       30.12F                  
MILTON NAS     FAIR      54  54 100 SW3       30.13F                  
CRESTVIEW      FAIR      46  43  89 CALM      30.15F                  
DUKE FIELD     FAIR      51  50  99 S3        30.13                   
VALPARAISO     FAIR      51  48  88 CALM      30.12F                  
MARY ESTHER    PTCLDY    51  48  89 CALM      30.12F                  
PANAMA CITY    FAIR      49  46  90 CALM      30.13F                  
TYNDALL AFB    FOG       54  53  96 S3        30.14F VSB 1/4          
APALACHICOLA   CLOUDY    55  53  93 CALM      30.14S FOG              

STATION/POSITION SKY/WX   TEMP    WIND        PRES    WAVE   SWELL
                          AIR SEA DIR/SP/G            HT/PER HT/PER
                          (F)     (DEG/KT/KT) (MB)    (FT/S) (FT/S)
30.1N   87.6W                                 1020.4F   1
29.2N   88.2W                     160/  6/  8 1020.9F   1/ 4
PANAMA CITY BEAC           63 66  220/  4/  5 1020.9F
TOWER C                    65     190/  7/  7 1020.9F

$$
FLZ011-016>038-118-127-128-134-139-239-250700-
NORTH FLORIDA
  
CITY           SKY/WX    TMP DP  RH WIND       PRES   REMARKS
MARIANNA       FAIR      55  49  80 CALM      30.12F                  
TALLAHASSEE    FAIR      50  49  96 CALM      30.14F                  
PERRY          FAIR      53  52  97 CALM      30.16F                  
LIVE OAK       CLOUDY    52  52 100 CALM      30.15F                  
CROSS CITY     FAIR      52  51  97 CALM      30.16F                  
LAKE CITY      MOCLDY    54  52  94 CALM      30.17F                  
GAINESVILLE    MOCLDY    58  53  84 CALM      30.19F                  
WILLISTON        N/A    N/A N/A N/A MISG        N/A                   
PALATKA        CLOUDY   N/A N/A N/A CALM      30.17F                  
MAYPORT NAS    FAIR      63  57  81 W3        30.17F                  
JACKSONVILLE   FAIR      57  54  89 CALM      30.16F                  
JAX NAS        MOCLDY    64  54  69 CALM      30.18F                  
JAX CECIL      CLOUDY   N/A N/A N/A CALM      30.17S                  
FERNANDINA BEA FAIR      60  57  88 W5        30.17F                  
ST AUGUSTINE   MOCLDY    62  57  83 SW5       30.18S                  
PALM COAST     FAIR      58  56  92 CALM      30.17S                  

STATION/POSITION SKY/WX   TEMP    WIND        PRES    WAVE   SWELL
                          AIR SEA DIR/SP/G            HT/PER HT/PER
                          (F)     (DEG/KT/KT) (MB)    (FT/S) (FT/S)
SHELL POINT      NOT AVBL
KEATON BEACH               56      70/  3/  3 1021.1F
CEDAR KEY                  65      50/  1/  1 1021.4F
FERNANDINA                         CALM  /  2   N/A
30.7N   81.3W                 63                N/A     2/ 5
MAYPORT                    63 64  250/  4/  4 1021.7F
31.4N   80.9W              65 62  160/  6/  6 1021.3F   2/ 9   2/ 9
ST AUGUSTINE               64 66  240/  5/  6 1021.7S

$$
FLZ040-043>046-052-053-057-058-063-144-250700-
INTERIOR CENTRAL FLORIDA
  
CITY           SKY/WX    TMP DP  RH WIND       PRES   REMARKS
OCALA          FAIR      56  52  86 CALM      30.17F                  
LEESBURG       FAIR      62  57  83 S3        30.18S                  
SANFORD        MOCLDY    67  58  72 S8        30.17S                  
ORLANDO EXEC   FAIR      64  57  78 SE5       30.17S                  
ORLANDO INTL   FAIR      62  55  77 CALM      30.17F                  
KISSIMMEE      FAIR      64  58  80 SE3       30.18F                  
WINTER HAVEN   FAIR      65  59  81 S3        30.18F                  
BARTOW         MOCLDY    59  57  94 CALM      30.17S                  
SEBRING        CLOUDY    67  61  82 SE5       30.17S                  
OKEECHOBEE     FAIR      61  59  94 CALM      30.17S                  

$$
FLZ041-047-054-059-064-141-147-250700-
EAST CENTRAL FLORIDA
  
CITY           SKY/WX    TMP DP  RH WIND       PRES   REMARKS
DAYTONA BEACH  FAIR      59  59 100 CALM      30.17S                  
DELAND         CLOUDY    63  57  82 CALM      30.17S                  
JFK SPACE CTR  FAIR      64  59  85 S5        30.16F                  
CAPE CANAVERAL FAIR      61  59  92 S5        30.15F                  
PATRICK AFB    FAIR      68  65  91 SE7       30.16                   
MELBOURNE      FAIR      65  60  84 CALM      30.16F                  
VERO BEACH     FAIR      62  58  86 SE3       30.17F                  
FT PIERCE      FAIR      59  56  89 CALM      30.17F                  

STATION/POSITION SKY/WX   TEMP    WIND        PRES    WAVE   SWELL
                          AIR SEA DIR/SP/G            HT/PER HT/PER
                          (F)     (DEG/KT/KT) (MB)    (FT/S) (FT/S)
28.5N   80.2W              75     150/ 14/ 17 1021.8F   3/ 9   2/ 9
28.9N   78.5W              73 74  130/ 14/ 16 1022.4F   4/ 9   2/ 9
TRIDENT PIER               68 68  140/  5/  7 1022.6F
28.4N   80.5W                 69                N/A     2/ 5
27.5N   80.2W                 71                N/A     3/11   2/11

$$
FLZ050-056-061-142-242-148-248-149-249-151-251-155-255-
160-260-250700-
WEST CENTRAL FLORIDA
  
CITY           SKY/WX    TMP DP  RH WIND       PRES   REMARKS
CRYSTAL RIVER  MOCLDY    55  52  88 CALM      30.16F                  
INVERNESS      FAIR      54  54 100 CALM      30.17F                  
BROOKSVILLE    FAIR      55  52  89 CALM      30.17F                  
CLEARWATER AIR MOCLDY    64  55  72 CALM      30.16S                  
ST PETE CLEARW MOCLDY    65  58  78 E3        30.16S                  
TAMPA INTL     FAIR      67  56  67 E3        30.16F                  
TAMPA EXEC     FAIR      55  54  94 CALM      30.17S                  
PLANT CITY     FAIR      64  59  82 E5        30.19S                  
PETER O KNIGHT CLOUDY    64  59  82 CALM      30.17S                  
ST PETERSBURG  FAIR      69  60  73 E6        30.14F                  
SARASOTA       FAIR      66  59  78 E7        30.14S                  
VENICE         FAIR      68  63  83 SE8       30.16S                  

STATION/POSITION SKY/WX   TEMP    WIND        PRES    WAVE   SWELL
                          AIR SEA DIR/SP/G            HT/PER HT/PER
                          (F)     (DEG/KT/KT) (MB)    (FT/S) (FT/S)
27.3N   84.2W                 73                N/A     2/ 5
CLEARWATER BEACH           67 71   70/  5/  6 1021.3S
MIDDLE TAMPA BAY           68     120/  5/  7 1021.3F
VENICE                     69 71  120/  8/  9 1020.7F

$$
FLZ066-069-070-075>078-162-262-165-265-250700-
SOUTHWEST FLORIDA AND KEYS
  
CITY           SKY/WX    TMP DP  RH WIND       PRES   REMARKS
PUNTA GORDA    FAIR      63  59  87 SE3       30.17F                  
FT MYERS       FAIR      67  60  78 S3        30.15F                  
SOUTHWEST INTL FAIR      66  60  81 SE3       30.15F                  
NAPLES         FAIR      69  62  78 E6        30.14F                  
MARCO ISLAND   FAIR      65  61  87 E6        30.15F                  
IMMOKALEE        N/A     64  61  88 CALM      30.14F                  
MARATHON       FAIR      76  62  62 E7        30.11F                  
KEY WEST NAS   FAIR      75  67  76 E10       30.12F                  
KEY WEST INTL  FAIR      75  68  78 E12       30.12F                  

STATION/POSITION SKY/WX   TEMP    WIND        PRES    WAVE   SWELL
                          AIR SEA DIR/SP/G            HT/PER HT/PER
                          (F)     (DEG/KT/KT) (MB)    (FT/S) (FT/S)
NAPLES                     70 73   90/  3/  6 1020.9F
DRY TORTUGAS               75     110/ 15/ 17 1019.7F
SAND KEY                   75                 1019.7F
SOMBRERO KEY               75                 1019.2F
MOLASSES REEF              75 78  110/ 11/ 12 1020.3F

$$
FLZ067-068-071>074-168-172>174-250700-
SOUTHEAST FLORIDA 
  
CITY           SKY/WX    TMP DP  RH WIND       PRES   REMARKS
W PALM BEACH   MOCLDY    73  60  63 SE9       30.15F                  
FT LAUDER-EXEC FAIR      73  59  61 SE7       30.15F                  
FT LAUDERDALE  FAIR      72  59  63 SE8       30.14F                  
POMPANO BEACH  MOCLDY    74  60  61 E12       30.15F                  
PEMBROKE PINES FAIR      70  59  68 E3        30.16F                  
OPA LOCKA      FAIR      70  60  70 E3        30.15F                  
MIAMI          FAIR      72  61  68 E8        30.15F                  
WEST KENDALL   FAIR      69  63  81 E6        30.14F                  
HOMESTEAD      FAIR      70  64  81 E5        30.13                   

STATION/POSITION SKY/WX   TEMP    WIND        PRES    WAVE   SWELL
                          AIR SEA DIR/SP/G            HT/PER HT/PER
                          (F)     (DEG/KT/KT) (MB)    (FT/S) (FT/S)
PORT EVERGLADES            74     120/  6/ 11 1021.0F
VIRGINIA KEY               74 76   80/ 11/ 13 1020.2F
LAKE WORTH                 74 76  130/ 13/ 15 1022.1F
FOWEY ROCKS                74 77  100/ 13/ 15 1021.0F
SETTLEMENT POINT           72      80/ 14/ 15 1021.5F

$$